Location: Bartlow
(52.0833°N, 0.3167°E)
Time: 13:15:31
(UTC+00:00)

Cosmos 1842 Rocket - Pass Details

Date: 26 September 2023
Orbit: 603 x 631 km, 82.5° (Epoch: 29 November)

Event Time Altitude Azimuth Distance (km) Brightness Sun altitude
Exits shadow 04:04:14 - 185° (S) 2,359 6.3 -16.8°
Reaches altitude 10° 04:05:06 10° 185° (S) 2,008 5.9 -16.7°
Maximum altitude 04:09:33 80° 99° (E) 649 3.7 -16.1°
Drops below altitude 10° 04:14:04 10° 13° (NNE) 2,029 6.6 -15.4°
Sets 04:16:19 0° 12° (NNE) 2,941 7.5 -15.1°
